CYGFM05

Last updated on Thu Oct 16 2025 00:02:22 GMT+0000 (Coordinated Universal Time)

1 41884U 16078A 25288.56239629 .00022195 00000+0 46312-3 0 9991 2 41884 34.9597 66.2929 0009744 0.9830 359.0908 15.44541951490750
UTC large
Height (km)
Speed (km/s)
/
Latitude / Longitude
Inclination (degrees)
Orbital Period (minutes)
Azimuth
Elevation
Range (km)
Doppler Factor

Next 0 passes for location: London (51.5072 / 0.1276)

Sorry there are no passes over London.